TimePDT,TemperatureF,Dew PointF,Humidity,Sea Level PressureIn,VisibilityMPH,Wind Direction,Wind SpeedMPH,Gust SpeedMPH,PrecipitationIn,Events,Conditions,WindDirDegrees,DateUTC
12:15 AM,50.0,33.8,54,29.78,10.0,ESE,6.9,-,N/A,,Clear,110,2013-05-05 07:15:00
12:35 AM,-9999,-9999,N/A,-9999,-9999.0,North,-9999.0,-,N/A,,Unknown,0,2013-05-05 07:35:00
12:55 AM,-9999,-9999,N/A,-9999,-9999.0,North,-9999.0,-,N/A,,Unknown,0,2013-05-05 07:55:00
1:15 AM,-9999,-9999,N/A,-9999,-9999.0,North,-9999.0,-,N/A,,Unknown,0,2013-05-05 08:15:00
1:35 AM,50.0,30.2,47,29.77,10.0,SW,3.5,-,N/A,,Unknown,230,2013-05-05 08:35:00
1:55 AM,50.0,32.0,50,29.77,10.0,Calm,Calm,-,N/A,,Clear,0,2013-05-05 08:55:00
2:15 AM,48.2,30.2,50,29.76,10.0,Calm,Calm,-,N/A,,Clear,0,2013-05-05 09:15:00
2:35 AM,-9999,-9999,N/A,-9999,10.0,North,-9999.0,-,N/A,,Unknown,0,2013-05-05 09:35:00
2:55 AM,-9999,-9999,N/A,-9999,-9999.0,North,-9999.0,-,N/A,,Unknown,0,2013-05-05 09:55:00
3:15 AM,-9999,-9999,N/A,-9999,-9999.0,North,-9999.0,-,N/A,,Unknown,0,2013-05-05 10:15:00
3:55 AM,42.8,28.4,57,29.75,10.0,Calm,Calm,-,N/A,,Unknown,0,2013-05-05 10:55:00
4:15 AM,44.6,26.6,49,29.74,10.0,East,4.6,-,N/A,,Clear,100,2013-05-05 11:15:00
4:35 AM,41.0,26.6,57,29.74,10.0,Calm,Calm,-,N/A,,Clear,0,2013-05-05 11:35:00
4:55 AM,41.0,24.8,53,29.74,10.0,SSE,5.8,-,N/A,,Clear,150,2013-05-05 11:55:00
5:15 AM,42.8,24.8,49,29.74,10.0,East,3.5,-,N/A,,Clear,100,2013-05-05 12:15:00
5:35 AM,41.0,24.8,53,29.74,10.0,Calm,Calm,-,N/A,,Clear,0,2013-05-05 12:35:00
5:55 AM,42.8,19.4,39,29.75,10.0,ENE,3.5,-,N/A,,Clear,70,2013-05-05 12:55:00
6:15 AM,41.0,23.0,49,29.76,10.0,South,6.9,-,N/A,,Unknown,190,2013-05-05 13:15:00
6:35 AM,48.2,19.4,32,29.76,10.0,SE,6.9,-,N/A,,Clear,130,2013-05-05 13:35:00
6:55 AM,46.4,21.2,37,29.77,10.0,Calm,Calm,-,N/A,,Clear,0,2013-05-05 13:55:00
7:15 AM,48.2,23.0,37,29.78,10.0,Calm,Calm,-,N/A,,Clear,0,2013-05-05 14:15:00
7:35 AM,51.8,23.0,33,29.77,10.0,Calm,Calm,-,N/A,,Clear,0,2013-05-05 14:35:00
7:55 AM,53.6,23.0,30,29.78,10.0,NE,3.5,-,N/A,,Clear,50,2013-05-05 14:55:00
8:15 AM,55.4,19.4,25,29.79,10.0,SSE,4.6,-,N/A,,Clear,150,2013-05-05 15:15:00
8:35 AM,-9999,-9999,N/A,-9999,-9999.0,North,-9999.0,-,N/A,,Unknown,0,2013-05-05 15:35:00
8:55 AM,-9999,-9999,N/A,-9999,-9999.0,North,-9999.0,-,N/A,,Unknown,0,2013-05-05 15:55:00
9:15 AM,57.2,28.4,33,29.80,10.0,ESE,6.9,-,N/A,,Unknown,120,2013-05-05 16:15:00
9:35 AM,57.2,32.0,38,29.81,10.0,East,13.8,19.6,N/A,,Clear,90,2013-05-05 16:35:00
9:55 AM,57.2,32.0,38,29.81,10.0,East,10.4,17.3,N/A,,Clear,80,2013-05-05 16:55:00
10:15 AM,59.0,28.4,31,29.81,10.0,ENE,5.8,-,N/A,,Clear,70,2013-05-05 17:15:00
10:35 AM,-9999,-9999,N/A,-9999,-9999.0,North,-9999.0,-,N/A,,Unknown,0,2013-05-05 17:35:00
10:55 AM,-9999,-9999,N/A,-9999,-9999.0,North,-9999.0,-,N/A,,Unknown,0,2013-05-05 17:55:00
11:15 AM,-9999,-9999,N/A,-9999,-9999.0,North,-9999.0,-,N/A,,Unknown,0,2013-05-05 18:15:00
11:35 AM,66.2,26.6,23,29.82,10.0,NNE,6.9,-,N/A,,Unknown,30,2013-05-05 18:35:00
11:55 AM,69.8,24.8,18,29.82,10.0,West,20.7,26.5,N/A,,Clear,270,2013-05-05 18:55:00
12:15 PM,64.4,24.8,22,29.82,10.0,West,15.0,26.5,N/A,,Scattered Clouds,260,2013-05-05 19:15:00
12:35 PM,64.4,32.0,30,29.83,9.0,ESE,17.3,23.0,N/A,,Partly Cloudy,110,2013-05-05 19:35:00
12:55 PM,59.0,35.6,42,29.83,9.0,East,19.6,28.8,N/A,,Clear,90,2013-05-05 19:55:00
1:15 PM,57.2,37.4,48,29.83,8.0,East,19.6,32.2,N/A,,Partly Cloudy,80,2013-05-05 20:15:00
1:35 PM,59.0,33.8,39,29.84,8.0,East,11.5,20.7,N/A,,Partly Cloudy,90,2013-05-05 20:35:00
1:55 PM,59.0,33.8,39,29.84,10.0,SE,13.8,25.3,N/A,,Mostly Cloudy,140,2013-05-05 20:55:00
2:15 PM,59.0,35.6,42,29.84,9.0,SE,23.0,33.4,N/A,,Mostly Cloudy,130,2013-05-05 21:15:00
2:35 PM,59.0,32.0,36,29.83,9.0,SE,17.3,32.2,N/A,,Partly Cloudy,140,2013-05-05 21:35:00
2:55 PM,57.2,37.4,48,29.83,8.0,SE,27.6,33.4,N/A,,Clear,130,2013-05-05 21:55:00
3:15 PM,57.2,35.6,44,29.83,9.0,SE,17.3,32.2,N/A,,Clear,130,2013-05-05 22:15:00
3:35 PM,57.2,35.6,44,29.83,10.0,SE,18.4,26.5,N/A,,Unknown,130,2013-05-05 22:35:00
3:55 PM,60.8,32.0,34,29.83,10.0,West,5.8,24.2,N/A,,Clear,280,2013-05-05 22:55:00
4:15 PM,59.0,33.8,39,29.83,10.0,SE,10.4,26.5,N/A,,Clear,130,2013-05-05 23:15:00
4:35 PM,57.2,37.4,48,29.82,9.0,ESE,23.0,32.2,N/A,,Clear,120,2013-05-05 23:35:00
4:55 PM,57.2,37.4,48,29.82,9.0,SE,27.6,34.5,N/A,,Clear,140,2013-05-05 23:55:00
5:15 PM,57.2,37.4,48,29.82,9.0,SSE,16.1,33.4,N/A,,Clear,150,2013-05-06 00:15:00
5:35 PM,57.2,33.8,41,29.83,10.0,SSE,15.0,23.0,N/A,,Clear,160,2013-05-06 00:35:00
5:55 PM,53.6,37.4,54,29.83,9.0,SE,21.9,26.5,N/A,,Clear,140,2013-05-06 00:55:00
6:15 PM,53.6,35.6,51,-9999,9.0,North,-9999.0,-,N/A,,Unknown,0,2013-05-06 01:15:00
6:35 PM,57.2,32.0,38,29.83,10.0,West,6.9,-,N/A,,Unknown,270,2013-05-06 01:35:00
6:55 PM,55.4,33.8,44,29.83,10.0,Calm,Calm,-,N/A,,Unknown,0,2013-05-06 01:55:00
7:15 PM,-9999,-9999,N/A,29.84,10.0,SE,8.1,-,N/A,,Unknown,140,2013-05-06 02:15:00
7:35 PM,-9999,-9999,N/A,-9999,-9999.0,North,-9999.0,-,N/A,,Unknown,0,2013-05-06 02:35:00
7:55 PM,48.2,33.8,58,29.85,9.0,East,11.5,20.7,N/A,,Unknown,80,2013-05-06 02:55:00
8:15 PM,-9999,-9999,N/A,-9999,-9999.0,North,-9999.0,-,N/A,,Unknown,0,2013-05-06 03:15:00
8:35 PM,-9999,-9999,N/A,-9999,-9999.0,North,-9999.0,-,N/A,,Unknown,0,2013-05-06 03:35:00
8:55 PM,48.2,32.0,54,29.86,10.0,NE,10.4,-,N/A,,Unknown,50,2013-05-06 03:55:00
9:15 PM,46.4,35.6,66,29.86,10.0,Calm,Calm,-,N/A,,Clear,0,2013-05-06 04:15:00
9:35 PM,44.6,32.0,61,29.87,10.0,ESE,5.8,-,N/A,,Clear,120,2013-05-06 04:35:00
9:55 PM,-9999,-9999,N/A,-9999,-9999.0,North,-9999.0,-,N/A,,Unknown,0,2013-05-06 04:55:00
10:15 PM,-9999,-9999,N/A,-9999,-9999.0,North,-9999.0,-,N/A,,Unknown,0,2013-05-06 05:15:00
10:35 PM,-9999,-9999,N/A,-9999,-9999.0,North,-9999.0,-,N/A,,Unknown,0,2013-05-06 05:35:00
10:55 PM,44.6,32.0,61,29.88,10.0,NE,8.1,-,N/A,,Unknown,40,2013-05-06 05:55:00
11:15 PM,46.4,35.6,66,29.88,10.0,ESE,5.8,-,N/A,,Clear,110,2013-05-06 06:15:00
11:35 PM,46.4,33.8,62,29.89,10.0,East,8.1,-,N/A,,Clear,100,2013-05-06 06:35:00
11:55 PM,46.4,35.6,66,29.89,10.0,ENE,8.1,-,N/A,,Clear,60,2013-05-06 06:55:00